WB0RXX Weather Reports


Display with metric or nautical units.
time (UTC)temp
F
wind
direction
speed
MPH
gust
MPH
rain 1hr
in
rain 24hr
in
rain mn
in
humidity
%
barometer
mb
20260509005004 67 350 6.0 11.0 0.00 0.00 0.00 30 1004.8
20260509004019 67 339 5.0 11.0 0.00 0.00 0.00 30 1004.8
20260509003003 68 323 5.0 9.0 0.00 0.00 0.00 29 1004.8
20260509002003 68 324 4.0 10.0 0.00 0.00 0.00 29 1004.6
20260509001019 68 322 7.0 11.0 0.00 0.00 0.00 29 1004.5
20260509000003 69 320 6.0 14.0 0.00 0.00 0.00 29 1004.4
20260508235003 69 355 1.0 1.0 0.00 0.00 0.00 29 1004.4
20260508234003 69 333 8.0 15.0 0.00 0.00 0.00 27 1004.4
20260508233002 70 318 6.0 9.0 0.00 0.00 0.00 25 1004.5
20260508232002 70 332 5.0 8.0 0.00 0.00 0.00 26 1004.4
20260508231005 71 308 6.0 10.0 0.00 0.00 0.00 25 1004.5
20260508230005 72 340 6.0 5.0 0.00 0.00 0.00 24 1004.4
20260508225004 72 298 4.0 7.0 0.00 0.00 0.00 24 1004.3
20260508224005 72 312 7.0 15.0 0.00 0.00 0.00 24 1004.2
20260508223004 72 317 6.0 10.0 0.00 0.00 0.00 24 1004.2
20260508222003 73 325 7.0 19.0 0.00 0.00 0.00 25 1004.2
20260508221003 72 312 7.0 11.0 0.00 0.00 0.00 25 1004.0
20260508220005 72 318 7.0 12.0 0.00 0.00 0.00 24 1003.8
20260508215004 72 294 4.0 11.0 0.00 0.00 0.00 26 1003.8
20260508214004 72 293 5.0 11.0 0.00 0.00 0.00 27 1003.8
20260508213005 72 327 7.0 10.0 0.00 0.00 0.00 27 1003.8
20260508212019 72 312 7.0 9.0 0.00 0.00 0.00 27 1003.7
20260508211003 71 305 5.0 12.0 0.00 0.00 0.00 28 1003.8
20260508210004 72 312 6.0 12.0 0.00 0.00 0.00 29 1003.8
20260508205003 73 338 5.0 12.0 0.00 0.00 0.00 27 1004.0
20260508204005 73 303 5.0 11.0 0.00 0.00 0.00 26 1004.0
20260508203004 72 331 1.0 3.0 0.00 0.00 0.00 28 1004.2
20260508202004 73 333 3.0 6.0 0.00 0.00 0.00 27 1004.2
20260508201004 72 316 7.0 8.0 0.00 0.00 0.00 27 1004.3
20260508200004 73 345 5.0 12.0 0.00 0.00 0.00 27 1004.4
20260508195005 72 325 5.0 14.0 0.00 0.00 0.00 27 1004.4
20260508194004 72 310 3.0 5.0 0.00 0.00 0.00 29 1004.3
20260508193003 72 298 6.0 9.0 0.00 0.00 0.00 28 1004.6
20260508192005 72 309 4.0 15.0 0.00 0.00 0.00 29 1004.6
20260508191018 71 328 5.0 9.0 0.00 0.00 0.00 30 1004.7
20260508190004 70 289 6.0 13.0 0.00 0.00 0.00 30 1004.9
20260508185003 70 300 6.0 11.0 0.00 0.00 0.00 31 1004.8
20260508184004 70 304 6.0 8.0 0.00 0.00 0.00 30 1004.9
20260508183004 71 277 3.0 9.0 0.00 0.00 0.00 32 1005.0
20260508182004 71 296 5.0 7.0 0.00 0.00 0.00 29 1005.0
20260508181003 70 310 5.0 11.0 0.00 0.00 0.00 29 1005.2
20260508180004 70 301 7.0 12.0 0.00 0.00 0.00 29 1005.3
20260508175003 70 278 3.0 5.0 0.00 0.00 0.00 28 1005.4
20260508174002 70 46 2.0 1.0 0.00 0.00 0.00 28 1005.5
20260508173003 70 295 6.0 10.0 0.00 0.00 0.00 27 1005.9
20260508172003 70 319 4.0 10.0 0.00 0.00 0.00 25 1005.8
20260508171005 70 291 3.0 11.0 0.00 0.00 0.00 26 1005.9
20260508170005 70 288 3.0 7.0 0.00 0.00 0.00 25 1006.0
20260508165003 70 303 0.0 1.0 0.00 0.00 0.00 26 1006.3
20260508164004 69 234 2.0 3.0 0.00 0.00 0.00 29 1006.5
20260508163003 68 230 0.0 3.0 0.00 0.00 0.00 31 1006.5
20260508162005 68 295 1.0 3.0 0.00 0.00 0.00 28 1006.6
20260508161003 67 320 1.0 3.0 0.00 0.00 0.00 30 1006.8
20260508160019 66 17 0.0 1.0 0.00 0.00 0.00 33 1006.8
20260508155019 65 338 2.0 3.0 0.00 0.00 0.00 34 1006.9
20260508154004 64 235 3.0 5.0 0.00 0.00 0.00 33 1007.0
20260508153004 63 321 1.0 3.0 0.00 0.00 0.00 36 1007.2
20260508152003 62 346 2.0 4.0 0.00 0.00 0.00 35 1007.5
20260508151004 61 295 0.0 1.0 0.00 0.00 0.00 38 1007.6
20260508150004 59 300 0.0 0.0 0.00 0.00 0.00 40 1007.8
20260508145005 58 300 2.0 2.0 0.00 0.00 0.00 41 1007.9
20260508144002 57 262 0.0 3.0 0.00 0.00 0.00 42 1008.0
20260508143002 56 333 1.0 2.0 0.00 0.00 0.00 42 1008.1
20260508142003 55 276 0.0 2.0 0.00 0.00 0.00 45 1008.2
20260508141018 54 262 1.0 1.0 0.00 0.00 0.00 46 1008.3
20260508140004 53 350 2.0 3.0 0.00 0.00 0.00 46 1008.3
20260508135003 52 350 0.0 0.0 0.00 0.00 0.00 48 1008.3
20260508134019 51 346 0.0 1.0 0.00 0.00 0.00 50 1008.4
20260508133004 50 355 0.0 0.0 0.00 0.00 0.00 52 1008.5
20260508132019 49 304 2.0 7.0 0.00 0.00 0.00 52 1008.5
20260508131003 49 346 0.0 0.0 0.00 0.00 0.00 51 1008.5
20260508130003 48 223 1.0 2.0 0.00 0.00 0.00 52 1008.3
20260508125004 47 223 0.0 0.0 0.00 0.00 0.00 54 1008.4
20260508124005 46 223 0.0 0.0 0.00 0.00 0.00 53 1008.4
20260508123003 46 223 0.0 0.0 0.00 0.00 0.00 54 1008.3
20260508122005 45 223 0.0 0.0 0.00 0.00 0.00 54 1008.2
20260508121018 45 223 0.0 0.0 0.00 0.00 0.00 53 1008.3
20260508120004 44 223 0.0 0.0 0.00 0.00 0.00 54 1008.1
20260508115003 44 223 0.0 0.0 0.00 0.00 0.00 54 1008.2
20260508114004 44 223 0.0 0.0 0.00 0.00 0.00 54 1008.2
20260508113005 44 223 1.0 2.0 0.00 0.00 0.00 54 1008.3
20260508112003 43 208 0.0 2.0 0.00 0.00 0.00 55 1008.2
20260508111004 42 208 0.0 0.0 0.00 0.00 0.00 56 1008.2
20260508110005 43 208 0.0 0.0 0.00 0.00 0.00 55 1008.2
20260508105004 43 208 0.0 0.0 0.00 0.00 0.00 55 1008.2
20260508104005 43 208 0.0 0.0 0.00 0.00 0.00 55 1008.2
20260508103003 43 208 0.0 0.0 0.00 0.00 0.00 54 1008.3
20260508102020 44 208 0.0 0.0 0.00 0.00 0.00 54 1008.4
20260508101003 44 208 0.0 0.0 0.00 0.00 0.00 54 1008.4
20260508100004 44 208 0.0 0.0 0.00 0.00 0.00 53 1008.4
20260508095004 44 208 0.0 0.0 0.00 0.00 0.00 53 1008.4
20260508094004 44 208 0.0 0.0 0.00 0.00 0.00 53 1008.4
20260508093019 44 208 0.0 0.0 0.00 0.00 0.00 53 1008.5
20260508092003 44 209 0.0 1.0 0.00 0.00 0.00 52 1008.3
20260508091004 44 210 0.0 0.0 0.00 0.00 0.00 52 1008.4
20260508090004 44 209 0.0 0.0 0.00 0.00 0.00 52 1008.4
20260508085004 44 209 0.0 0.0 0.00 0.00 0.00 52 1008.4
20260508084005 44 209 0.0 0.0 0.00 0.00 0.00 52 1008.4
20260508083003 44 209 0.0 0.0 0.00 0.00 0.00 52 1008.5
20260508082004 45 209 0.0 0.0 0.00 0.00 0.00 52 1008.5
20260508081020 45 209 0.0 0.0 0.00 0.00 0.00 51 1008.6
20260508080004 45 209 0.0 0.0 0.00 0.00 0.00 52 1008.7
20260508075003 45 189 1.0 2.0 0.00 0.00 0.00 49 1008.8
20260508074003 46 190 0.0 0.0 0.00 0.00 0.00 48 1008.8
20260508073003 46 193 0.0 0.0 0.00 0.00 0.00 48 1008.8
20260508072004 46 206 1.0 4.0 0.00 0.00 0.00 47 1008.9
20260508071003 46 182 0.0 1.0 0.00 0.00 0.00 47 1008.9
20260508070004 46 182 1.0 3.0 0.00 0.00 0.00 47 1008.9
20260508065004 46 186 0.0 1.0 0.00 0.00 0.00 48 1009.0
20260508064004 46 186 0.0 0.0 0.00 0.00 0.00 48 1009.1
20260508063004 46 186 0.0 0.0 0.00 0.00 0.00 48 1009.1
20260508062004 46 186 0.0 0.0 0.00 0.00 0.00 47 1009.1
20260508061004 46 186 0.0 2.0 0.00 0.00 0.00 47 1009.1
20260508060018 46 181 1.0 4.0 0.00 0.00 0.00 47 1009.0
20260508055019 46 176 0.0 0.0 0.00 0.00 0.00 46 1009.1
20260508054003 46 154 0.0 0.0 0.00 0.00 0.00 46 1009.1
20260508053019 46 153 0.0 2.0 0.00 0.00 0.00 46 1009.2
20260508052003 46 153 1.0 2.0 0.00 0.00 0.00 46 1009.4
20260508051004 46 355 0.0 1.0 0.00 0.00 0.00 47 1009.4
20260508050007 47 355 0.0 0.0 0.00 0.00 0.00 45 1009.3
20260508045003 48 355 0.0 1.0 0.00 0.00 0.00 44 1009.4
20260508044004 48 355 0.0 2.0 0.00 0.00 0.00 44 1009.5
20260508043003 48 355 0.0 0.0 0.00 0.00 0.00 43 1009.7
20260508042004 49 355 0.0 1.0 0.00 0.00 0.00 44 1009.6
20260508041020 49 355 0.0 0.0 0.00 0.00 0.00 43 1009.6
20260508040004 49 355 0.0 0.0 0.00 0.00 0.00 43 1009.7
20260508035005 50 355 0.0 0.0 0.00 0.00 0.00 42 1009.8
20260508034003 50 355 0.0 0.0 0.00 0.00 0.00 43 1009.8
20260508033005 50 355 0.0 0.0 0.00 0.00 0.00 42 1009.9
20260508032004 50 355 0.0 0.0 0.00 0.00 0.00 43 1010.0
20260508031003 51 355 0.0 0.0 0.00 0.00 0.00 42 1009.9
20260508030004 51 355 0.0 0.0 0.00 0.00 0.00 42 1009.9
20260508025004 52 355 0.0 0.0 0.00 0.00 0.00 41 1009.9
20260508024003 52 355 0.0 0.0 0.00 0.00 0.00 39 1010.0
20260508023019 53 355 0.0 0.0 0.00 0.00 0.00 37 1009.9
20260508022004 54 355 0.0 0.0 0.00 0.00 0.00 38 1009.9
20260508021004 55 355 0.0 0.0 0.00 0.00 0.00 37 1009.9
20260508020004 56 355 0.0 0.0 0.00 0.00 0.00 35 1009.7
20260508015003 56 355 0.0 0.0 0.00 0.00 0.00 33 1009.8
20260508014004 57 355 0.0 0.0 0.00 0.00 0.00 32 1009.7
20260508013004 58 355 0.0 0.0 0.00 0.00 0.00 31 1009.7
20260508012004 58 355 0.0 0.0 0.00 0.00 0.00 30 1009.6
20260508011003 59 351 1.0 6.0 0.00 0.00 0.00 30 1009.5
20260508010004 59 350 0.0 2.0 0.00 0.00 0.00 29 1009.6